ASA436 KSEA-KBZN

Flight info

Callsign ASA436
Flight time N/A
Altitude 35000
Route MONTN2 SEA NORMY MODDA STEVS EATZZ EATZZ1
Aircraft B738/M-SDE2E3FGHIRWXY/LB1

Departure

Time N/A
Airport Seattle–Tacoma International Airport (KSEA)

Arrival

Time 2026-05-01 13:08
Airport Bozeman Yellowstone International Airport (KBZN)
Time Latitude Longitude Altitude Speed Heading
2026-05-01 12:37 46.56689 -115.40046 35200 ft 438 kts 102°
2026-05-01 12:37 46.56009 -115.35718 35195 ft 438 kts 102°
2026-05-01 12:38 46.54649 -115.27094 35211 ft 437 kts 102°
2026-05-01 12:38 46.53282 -115.18471 35218 ft 437 kts 102°
2026-05-01 12:39 46.51919 -115.09918 35205 ft 437 kts 102°
2026-05-01 12:39 46.50540 -115.01311 35206 ft 437 kts 102°
2026-05-01 12:40 46.49157 -114.92721 35214 ft 437 kts 102°
2026-05-01 12:40 46.47766 -114.84127 35207 ft 436 kts 102°
2026-05-01 12:41 46.46381 -114.75617 35206 ft 436 kts 102°
2026-05-01 12:41 46.44980 -114.67045 35198 ft 436 kts 102°
2026-05-01 12:42 46.43581 -114.58536 35196 ft 435 kts 102°
2026-05-01 12:42 46.42171 -114.49993 35192 ft 435 kts 102°
2026-05-01 12:43 46.40756 -114.41475 35206 ft 434 kts 102°
2026-05-01 12:43 46.39338 -114.32976 35212 ft 434 kts 102°
2026-05-01 12:44 46.37915 -114.24485 35212 ft 433 kts 102°
2026-05-01 12:45 46.35058 -114.07569 35221 ft 432 kts 102°
2026-05-01 12:45 46.33628 -113.99165 35222 ft 432 kts 102°
2026-05-01 12:46 46.32184 -113.90720 35233 ft 431 kts 102°
2026-05-01 12:46 46.30733 -113.82271 34963 ft 435 kts 102°
2026-05-01 12:47 46.30006 -113.78056 34644 ft 429 kts 102°
2026-05-01 12:47 46.29282 -113.73869 34215 ft 425 kts 102°
2026-05-01 12:47 46.28573 -113.69781 33759 ft 422 kts 102°
2026-05-01 12:47 46.27861 -113.65677 33330 ft 418 kts 102°
2026-05-01 12:48 46.27155 -113.61626 32903 ft 414 kts 102°
2026-05-01 12:48 46.26453 -113.57600 32496 ft 410 kts 102°
2026-05-01 12:48 46.25756 -113.53616 32072 ft 407 kts 102°
2026-05-01 12:48 46.25064 -113.49666 31678 ft 403 kts 102°
2026-05-01 12:49 46.24376 -113.45745 31279 ft 400 kts 102°
2026-05-01 12:49 46.23694 -113.41870 30898 ft 397 kts 102°
2026-05-01 12:49 46.23021 -113.38056 30509 ft 395 kts 102°
2026-05-01 12:49 46.22344 -113.34225 30094 ft 392 kts 102°
2026-05-01 12:50 46.21669 -113.30413 29644 ft 389 kts 102°
2026-05-01 12:50 46.21000 -113.26645 29245 ft 385 kts 102°
2026-05-01 12:50 46.20337 -113.22917 28836 ft 381 kts 102°
2026-05-01 12:50 46.19680 -113.19228 28448 ft 377 kts 102°
2026-05-01 12:51 46.19026 -113.15568 28047 ft 374 kts 102°
2026-05-01 12:51 46.18385 -113.11987 27649 ft 371 kts 102°
2026-05-01 12:51 46.17102 -113.04834 26870 ft 365 kts 102°
2026-05-01 12:52 46.16465 -113.01297 26499 ft 362 kts 102°
2026-05-01 12:52 46.15204 -112.94311 25766 ft 358 kts 102°
2026-05-01 12:52 46.14576 -112.90838 25384 ft 356 kts 102°
2026-05-01 12:53 46.13334 -112.84000 24648 ft 353 kts 102°
2026-05-01 12:53 46.12712 -112.80578 24278 ft 351 kts 102°
2026-05-01 12:53 46.12092 -112.77178 23911 ft 350 kts 102°
2026-05-01 12:54 46.11471 -112.73778 23477 ft 349 kts 102°
2026-05-01 12:54 46.10236 -112.67042 22687 ft 345 kts 102°
2026-05-01 12:54 46.09626 -112.63722 22310 ft 342 kts 102°
2026-05-01 12:55 46.08421 -112.57181 21588 ft 337 kts 102°
2026-05-01 12:55 46.07821 -112.53932 21228 ft 335 kts 102°
2026-05-01 12:55 46.07222 -112.50693 20884 ft 333 kts 102°
2026-05-01 12:56 46.06625 -112.47473 20522 ft 331 kts 102°
2026-05-01 12:56 46.06032 -112.44281 20174 ft 330 kts 102°
2026-05-01 12:56 46.05440 -112.41092 19824 ft 328 kts 102°
2026-05-01 12:56 46.04849 -112.37922 19473 ft 327 kts 102°
2026-05-01 12:57 46.04259 -112.34759 19126 ft 326 kts 102°
2026-05-01 12:57 46.03090 -112.28509 18412 ft 324 kts 102°
2026-05-01 12:57 46.02504 -112.25383 18021 ft 323 kts 102°
2026-05-01 12:58 46.01917 -112.22257 17654 ft 322 kts 102°
2026-05-01 12:58 46.01335 -112.19161 17294 ft 320 kts 102°
2026-05-01 12:58 46.00755 -112.16083 16947 ft 318 kts 102°
2026-05-01 12:59 45.99606 -112.09994 16268 ft 315 kts 102°
2026-05-01 12:59 45.99219 -112.07949 16058 ft 313 kts 102°
2026-05-01 12:59 45.98051 -112.01094 15562 ft 300 kts 94°
2026-05-01 13:00 45.97752 -111.96041 14944 ft 310 kts 91°
2026-05-01 13:00 45.97596 -111.92925 14539 ft 314 kts 92°
2026-05-01 13:01 45.97233 -111.86632 13672 ft 316 kts 93°
2026-05-01 13:01 45.97033 -111.83478 13242 ft 317 kts 94°
2026-05-01 13:01 45.96618 -111.77158 12409 ft 317 kts 94°
2026-05-01 13:02 45.96408 -111.73999 11988 ft 317 kts 94°
2026-05-01 13:07 45.82901 -111.22202 5791 ft 234 kts 138°
2026-05-01 13:07 45.81715 -111.20683 5250 ft 223 kts 138°
2026-05-01 13:07 45.80579 -111.19229 4877 ft 211 kts 136°
2026-05-01 13:08 45.79615 -111.17760 4695 ft 193 kts 131°
2026-05-01 13:08 45.78665 -111.16436 4510 ft 187 kts 138°
2026-05-01 13:08 45.77840 -111.15295 4481 ft 110 kts 135°
2026-05-01 13:08 45.77589 -111.14946 4481 ft 23 kts 136°
2026-05-01 13:09 45.77497 -111.14950 4484 ft 14 kts 223°
2026-05-01 13:09 45.77434 -111.15041 4480 ft 11 kts 229°
2026-05-01 13:09 45.77419 -111.15108 4480 ft 6 kts 295°
2026-05-01 13:09 45.77444 -111.15158 4480 ft 7 kts 311°
2026-05-01 13:10 45.77497 -111.15235 4480 ft 14 kts 315°
2026-05-01 13:10 45.77587 -111.15358 4483 ft 21 kts 315°
2026-05-01 13:10 45.77703 -111.15518 4480 ft 24 kts 316°
2026-05-01 13:10 45.77817 -111.15677 4482 ft 18 kts 315°
2026-05-01 13:11 45.77908 -111.15805 4480 ft 16 kts 315°
2026-05-01 13:11 45.77939 -111.15901 4480 ft 8 kts 240°
2026-05-01 13:11 45.77909 -111.15931 4483 ft 0 kts 186°
2026-05-01 13:11 45.77908 -111.15931 4483 ft 0 kts 185°
2026-05-01 13:12 45.77855 -111.15933 4480 ft 22 kts 189°
2026-05-01 13:12 45.77834 -111.15960 4480 ft 0 kts 241°
2026-05-01 13:12 45.77832 -111.15965 4480 ft 1 kts 242°
2026-05-01 13:12 45.77830 -111.15971 4483 ft 1 kts 243°
2026-05-01 13:13 45.77828 -111.15975 4485 ft 0 kts 244°